Regional Weather Roundup
Issued by NWS

Home | Current Version | Previous Version | Text Only | Print | Product List | Glossary On
Versions: 1 2 3 4 5 6 7 8 9 10 11 12 13 14 15 16 17 18 19 20 21 22 23 24 25 26
000
ASCA42 TJSJ 200810
RWRPR
PUERTO RICO/U.S. VIRGIN ISLANDS HOURLY WEATHER ROUNDUP
NATIONAL WEATHER SERVICE SAN JUAN PR
400 AM AST FRI APR 20 2018

PRZ001>002-007>008-010-200900-
PUERTO RICO

CITY           SKY/WX    TMP DP  RH WIND       PRES   REMARKS
SAN JUAN LMM   PTCLDY    75  68  78 E6        30.06F
$$

VIZ001>002-200900-
U.S. VIRGIN ISLANDS

CITY           SKY/WX    TMP DP  RH WIND       PRES   REMARKS
CHARLOTTE AMA  CLEAR     79  72  78 E9        30.06
$$

HOURLY WEATHER ROUNDUP FOR THE NEWS MEDIA

CITY           SKY/WX    TMP DP  RH WIND       PRES   REMARKS
ORLANDO        FAIR      67  64  90 NW6       30.06F
NEW YORK       FAIR      37  24  59 W12G21    30.07R WCI  29
NEWARK         MOCLDY    37  24  59 W14       30.07R WCI  28
CHICAGO        FAIR      37  23  56 W5        30.44R WCI  33
HARTFORD       FAIR      35  29  78 W9        29.88R WCI  28
BOSTON         FAIR      37  29  72 W15G22    29.87R WCI  28
DALLAS         FAIR      53  41  63 E7        30.25F
PHILADELPHIA   FAIR      38  22  52 NW14      30.15R WCI  30
LOS ANGELES    FAIR      54  49  83 E6        30.06R
WASHINGTON DC  FAIR      38  24  57 NW13      30.22R WCI  30



USA.gov is the U.S. government's official web portal to all federal, state and local government web resources and services.